FENGYUN 1C DEB, 37077

Orbit data source: Space-Track

FENGYUN 1C DEB, 37077 is space debris in SSO originally from a launch on Mon, 10 May 1999 UTC launched from the Taiyaun Space Center, China (TSC). Fengyun 1C debris stems from the Chinese weather satellite Fengyun-1C, which was intentionally destroyed by a Chinese anti-satellite missile in 2007. This event dramatically increased the amount of space debris, with thousands of trackable fragments posing hazards to satellites and human spaceflight. The Fengyun 1C debris cloud has become a focal point in discussions about space sustainability and the need for international regulations to prevent the creation of new debris.

Loading next visibility...
Identifier
37077, 1999-025EFM
Orbit
SSO
Country
Flag of CNCN / PRC
Related business
Manufacturer
Unknown
Mission
Spacecraft
Bus & Motor
Unknown
Mass
Unknown
Launch date (UTC)
1999-05-10 (27 years ago)
Launch vehicle
Unknown
Launch site
Taiyaun Space Center, China (TSC)
Object type
Payload
Rocket body
Debris
Shape & HBR
Unknown shape, 0.1 m
Radar Cross Section
Small (<0.1 m²)

Expand to show TLE details & history
Last TLE update: 13 hours ago

TLE from 13 hours ago
0 FENGYUN 1C DEB
1 37077U 99025EFM 26095.17478882  .00001319  00000-0  39980-3 0  9992
2 37077  99.0201 181.6830 0095050 353.6900   6.3083 14.41536263865890
Epoch: 2026-04-05T04:11Z
TLE epoch observation values (Epoch: 2026-04-05T04:11:41.754Z)
Latitude
-0°
Longitude
-74.72497°
Altitude
688.98 km
Speed
7.547 km/s
True Right ascension
12h 06m 43s
True Declination
0° 00' 00"
Sunlit
Object was in full shadow at epoch
Visualization orbit readout
Latitude
Unknown
Longitude
Unknown
Altitude
Unknown
Speed
Unknown
Apparent Right ascension
Unknown
Apparent Declination
Unknown
Sunlit
N/A
Visualization observer readout
Local Sidereal Time
23:11:07
Azimuth
Unknown
Elevation
Unknown
Doppler factor
Unknown
Orbital elements
Apogee altitude
818.33 km
Perigee altitude
682.814 km
Semi-major axis
7,128.709 km
Eccentricity
0.00951
Inclination
99.0201°
RAAN
181.683°
Arg. of periapsis
353.69°
True anomaly
6.42941°
Mean anomaly
6.3083°
Eccentric anomaly
6.36871°
Mean motion
3.60601 °/min
Orbital period
99.83 mins
BSTAR
0.0003998
Loading maneuver chart data...
Computing Atmospheric mass density...

Documentation

Showing up to 5 results
|